sat.trackr.live / text

‹ back to catalog

STARLINK-6193

NORAD 56904 · 2023-083AE

PAYLOAD ACTIVE UNKNOWN

§ Identity

Operator
Country
US
Launch date
2023-06-12
Launch site
AFETR
Launch vehicle
Mass (kg)
RCS (m²)

Purposes: comms

External: N2YO · Heavens-Above · Gunter

§ Orbital elements

Epoch: 2026-05-24T21:47:35.666880Z

Period
94.27 min
Inclination
43.0057°
Eccentricity
0.0001286
Mean motion
15.27582405 rev/d
Perigee alt
482.2 km
Apogee alt
483.9 km
Semi-major
6,861.2 km
B*
2.7129e-5
RAAN
0.3346°
Arg perigee
264.3529°
Mean anomaly
95.7176°
Rev number
16,345

§ Raw data

STARLINK-61931 56904U 23083AE  26144.90805170  .00000484  00000+0  27129-4 0  99972 56904  43.0057   0.3346 0001286 264.3529  95.7176 15.27582405163452

JSON: /api/v1/satellites/56904 · /tle

For live sub-satellite position, see the globe view (requires WebGL).

§ Visibility from observer

Set your observer location to see the next 7 days of passes ≥ 10°. The values pass through the URL so the page stays shareable.

No JS? Fill the form by hand. The geolocation button needs JavaScript.